SCP
0 0 0 0 0 0 -0 0 -0 0 0 0 0 0 0 -0 -0 0 0 0 0 0 0 0 0 -0 -0 -0 -0 -0 0 -0 0 0 0 0 0 0 0 0 0 0 0
0 0 0 0 -0 -0 -0 -0 0 0 0 0 0 0 0 0 0 -0 0 0 0 0 0 0 0 0 0 0 -0 -0 -0 0 0 0 0 0 0 0 0 0 0 0 0
0 0 0 0 -0 -0 -0 0 0 0 -0 -0 -0 0 0 0 -0 0 0 0 0 1 0 0 0 0 0 0 0 -0 -0 -0 -0 -0 0 0 0 0 0 0 0 0 0
0 0 0 0 0 0 0 0 -0 0 -0 -0 -0 0 0 0 0 -0 -0 0 0 0 0 0 0 0 0 -0 -0 -0 -0 -0 -0 -0 -0 -0 0 0 0 0 0 0 0
0 0 0 0 0 0 -0 0 0 -0 -0 0 0 0 0 0 0 0 -0 0 0 0 0 0 0 0 0 0 0 0 -0 -0 -0 -0 -0 -0 -0 -0 -0 0 0 0 0
0 0 0 0 0 0 0 0 0 -0 -0 -0 0 0 0 0 0 0 -0 -0 0 0 0 0 0 0 0 0 0 0 -0 0 -0 -0 -0 -0 -0 0 -0 -0 -0 0 0
0 0 0 0 0 0 0 -0 0 0 0 0 -0 0 0 -0 0 -0 -0 0 0 0 -0 -0 -0 0 0 0 0 0 0 0 0 0 0 -0 -0 -0 -0 -0 -0 -0 -0
0 0 0 0 0 0 0 0 0 0 0 0 0 -0 -0 0 0 0 0 0 0 0 0 -0 -0 -0 -0 0 0 0 0 0 0 0 0 0 -0 -0 -0 -0 -0 -0 -0
0 0 0 0 0 0 0 0 0 0 0 -0 -0 0 -0 0 0 0 0 -0 -0 0 0 -0 -0 -0 -0 -0 0 0 0 0 0 0 0 0 -0 -0 -0 -0 -0 -0 -0
0 0 0 0 -0 -0 0 0 0 0 -0 -0 0 0 0 0 0 0 -0 -0 -0 -0 0 0 -0 -0 -0 0 0 0 0 0 0 0 -0 -0 -0 -0 -0 -0 -0 -0 -0
0 0 -0 0 -0 -0 -0 0 0 0 0 -0 -0 0 -0 0 0 0 0 0 0 0 -0 -0 -0 0 0 -0 0 0 -0 -0 -0 -0 -0 -0 -0 -0 -0 -0 -0 -0 -0
0 0 0 -0 0 -0 0 0 -0 -0 -0 -0 -0 -0 0 0 0 0 0 0 0 0 0 0 -0 0 0 0 0 -0 -0 -0 -0 -0 -0 -0 -0 -0 -0 -0 -0 -0 -0
0 0 -0 -0 0 0 -0 0 0 0 -0 0 0 -0 -0 -0 0 -0 0 0 0 0 -0 0 0 0 -0 0 0 -0 -0 -0 -0 -0 -0 -0 -0 -0 -0 -0 -0 -0 -0
0 0 0 -0 -0 0 0 0 0 0 -0 -0 -0 -0 -0 0 -0 -0 -0 0 0 -0 0 0 -0 0 0 0 -0 -0 0 -0 -0 -0 -0 -0 -0 -0 -0 -0 -0 -0 -0
-0 0 0 0 0 0 0 -0 -0 0 0 0 -0 -0 -0 -0 -0 -0 -0 -0 -0 -0 0 0 -0 -0 0 0 0 0 -0 -0 -0 -0 -0 -0 -0 -0 -0 -0 0 0 0
-0 0 0 0 0 0 0 0 -0 0 0 0 0 0 0 -0 -0 -0 -0 -0 -0 -0 0 0 0 -0 0 0 0 0 0 -0 -0 -0 -0 -0 -0 -0 0 0 0 0 0
0 0 -0 0 0 0 0 0 0 0 0 0 0 0 0 0 0 -0 -0 0 -0 -0 -0 0 0 0 0 0 0 0 0 0 0 -0 0 0 0 0 0 0 0 0 0
0 0 0 0 0 0 0 0 0 0 0 0 0 0 0 0 0 0 0 -0 0 0 0 0 0 0 0 0 0 0 0 0 0 0 0 0 0 0 0 0 0 0 0
0 0 0 0 0 0 0 0 0 0 0 0 0 0 0 0 0 0 0 0 0 0 0 0 0 0 0 0 0 0 0 0 0 0 0 0 0 0 0 0 0 0 0
-0 0 0 0 0 0 0 0 0 0 0 0 0 0 0 0 0 0 0 0 0 0 0 0 0 0 0 0 0 0 0 0 0 0 0 0 0 0 0 0 0 0 0
-0 -0 0 0 0 0 0 0 0 0 0 0 0 0 0 0 0 0 0 0 0 0 0 0 0 0 0 0 0 0 0 0 0 0 0 0 0 0 0 0 0 0 0
-0 -0 -0 0 0 0 0 0 0 0 0 0 0 0 0 0 0 0 0 0 0 0 0 0 0 0 0 0 0 0 0 0 0 0 0 0 0 0 0 0 0 0 0
0 0 -0 -0 0 0 0 0 0 0 0 0 0 0 0 0 0 0 0 0 0 0 0 0 0 0 0 0 0 0 0 0 0 0 0 0 0 0 0 0 0 0 0
0 0 0 0 0 0 0 0 0 0 0 0 0 0 0 0 0 0 0 0 0 0 0 0 0 0 0 0 0 0 0 0 0 0 0 0 0 0 0 0 0 0 0
0 0 0 0 0 0 0 0 0 0 0 0 0 0 0 0 0 0 0 0 0 0 0 0 0 0 0 0 0 0 0 0 0 0 0 0 0 0 0 0 0 0 0
0 0 0 0 0 0 0 0 0 0 0 0 0 0 0 0 0 0 0 0 0 0 0 0 0 0 0 0 0 0 0 0 0 0 0 0 0 0 0 0 0 0 0
Wind_Speed_500mb
24 21 21 18 15 11 16 6 14 12 13 12 13 15 14 24 19 12 16 13 16 21 25 26 28 31 36 43 49 44 31 32 32 33 34 35 35 32 31 27 26 26 26
18 16 20 16 10 6 4 6 4 12 9 8 2 4 9 16 19 18 19 13 16 22 26 27 30 34 37 41 42 39 36 34 33 32 32 36 34 32 32 31 29 28 29
17 11 15 12 6 5 9 5 5 12 17 19 6 2 5 13 19 19 20 17 18 20 22 26 29 31 32 32 32 32 32 30 30 28 27 28 30 30 29 27 27 27 28
19 15 12 12 11 4 4 13 6 6 20 15 10 11 5 14 17 24 19 16 18 19 22 23 24 26 28 27 27 26 26 27 27 26 25 26 27 28 28 27 27 27 28
21 18 16 11 7 3 4 6 14 12 9 19 14 10 7 12 16 20 22 17 17 18 18 19 19 21 23 24 23 23 24 26 26 25 26 27 27 27 27 26 26 26 27
24 22 17 15 10 4 5 5 11 10 14 8 10 15 14 10 15 11 24 22 19 19 20 17 17 18 17 17 19 21 21 22 23 24 25 26 27 26 25 25 24 23 25
25 30 20 17 13 9 5 2 5 6 11 4 11 17 17 22 19 8 8 18 16 19 23 22 16 16 18 18 20 21 21 21 21 23 25 26 26 25 23 21 20 20 21
35 29 22 18 18 15 8 6 7 6 6 9 6 3 16 17 28 14 21 18 19 18 23 26 25 21 21 17 16 18 20 20 19 19 21 23 23 23 22 19 16 16 16
24 31 30 18 18 17 12 15 8 4 6 7 6 5 10 11 22 16 23 23 8 21 22 28 29 29 26 23 17 15 14 16 17 17 19 21 21 22 21 19 16 13 12
21 25 34 23 18 13 21 11 7 6 7 8 8 3 4 6 7 9 11 22 17 18 19 27 31 26 24 19 22 18 11 12 14 15 16 16 18 21 20 19 17 14 11
19 25 30 24 17 17 11 7 6 6 11 10 8 3 2 16 3 5 8 13 14 17 23 28 22 28 17 16 18 22 16 11 14 16 16 16 16 15 15 15 16 16 14
21 25 30 21 14 16 17 16 10 8 4 1 11 9 1 15 14 7 9 12 12 8 25 31 27 23 24 12 14 17 16 14 13 16 17 16 15 15 15 15 17 19 19
32 23 28 25 17 8 14 17 15 5 6 6 1 12 9 9 3 8 4 9 8 6 10 17 26 29 33 21 9 13 18 13 16 17 18 17 16 15 15 15 17 19 23
27 24 22 22 19 16 13 11 7 12 11 12 3 2 7 6 12 11 10 16 12 12 18 17 17 28 27 27 21 18 20 19 17 19 20 20 16 17 17 16 16 18 20
36 24 26 26 30 27 18 18 16 15 14 15 12 11 9 9 11 9 12 14 14 12 6 6 23 19 31 29 23 20 21 19 19 19 18 21 20 20 21 20 19 19 19
31 29 32 31 28 35 32 25 17 16 19 16 15 12 14 13 13 19 15 17 11 8 4 10 21 21 12 25 27 21 21 20 20 21 22 23 23 23 25 25 25 25 24
37 36 30 29 28 19 30 28 20 22 23 27 23 19 27 23 19 21 27 22 22 22 21 12 14 18 16 21 22 18 21 23 21 22 25 29 30 28 28 29 29 29 28
46 38 41 37 38 34 29 31 22 20 24 22 23 26 26 26 24 25 22 23 26 22 23 17 18 21 23 19 22 25 23 24 25 27 30 30 32 33 33 32 33 33 32
54 51 42 44 42 35 31 31 33 32 29 28 28 27 26 26 26 24 28 28 26 27 24 24 23 22 25 29 33 31 33 33 30 31 34 35 35 35 37 38 38 38 38
55 50 52 51 47 44 42 37 34 37 38 33 31 30 28 30 29 26 29 30 33 32 31 32 34 30 26 28 34 36 39 39 39 36 38 43 44 46 46 44 45 44 43
48 45 44 45 40 40 41 39 38 37 35 36 36 33 32 30 33 31 31 30 29 30 32 34 35 36 32 34 39 37 38 40 45 50 49 49 49 51 52 51 49 47 47
49 50 53 48 42 43 39 39 40 39 39 38 38 33 31 31 35 32 34 35 31 31 33 36 38 40 38 35 35 39 41 44 50 45 45 47 46 47 43 45 47 48 48
54 54 54 54 49 41 38 38 40 40 42 43 46 45 39 37 35 33 34 37 40 41 45 42 44 43 43 41 41 44 47 52 57 54 55 60 59 61 54 51 47 49 51
46 48 48 51 49 46 43 41 44 49 52 53 53 50 45 46 43 37 33 36 41 44 36 36 42 44 43 41 40 39 41 47 53 56 56 65 64 67 61 60 54 53 55
55 55 51 48 51 51 50 48 44 42 44 45 50 55 55 51 47 45 46 47 46 42 40 41 45 46 45 46 46 49 52 50 58 62 64 66 69 68 70 69 66 66 65
57 52 51 50 46 42 43 43 43 41 42 44 46 50 52 52 50 51 53 51 48 44 47 46 47 48 49 49 49 52 54 56 58 66 61 57 67 68 73 79 74 69 74
Wind_Direction_500mb
147 135 117 113 107 94 73 84 14 340 324 352 350 121 127 144 124 137 141 156 184 197 201 201 197 187 183 186 185 190 206 207 205 210 216 220 222 221 218 228 238 237 236
167 146 126 117 119 133 148 143 302 273 336 23 10 32 160 115 113 123 131 141 182 195 200 199 194 190 187 190 197 209 219 219 219 219 223 222 222 225 228 238 241 241 239
145 156 148 127 162 195 231 260 299 51 66 23 98 138 159 128 113 107 134 150 163 181 185 189 189 187 187 191 197 201 204 207 211 215 217 217 220 225 230 236 239 242 243
154 150 139 144 155 178 239 325 341 34 10 353 92 114 256 159 119 104 145 166 163 163 171 178 178 177 179 183 186 190 193 198 204 208 215 220 222 227 231 237 241 244 247
173 162 174 178 172 161 284 306 37 58 10 9 128 105 111 148 141 135 139 167 169 171 169 166 175 179 180 183 189 195 201 205 209 213 221 227 230 232 236 240 243 245 247
167 187 174 209 187 214 75 122 36 23 356 26 59 110 139 197 168 190 155 161 171 174 179 181 182 191 196 197 202 212 215 221 223 225 226 229 232 233 236 238 241 245 249
186 191 184 189 206 208 245 176 355 32 22 16 17 124 136 166 178 189 240 186 185 176 182 185 188 197 199 200 207 216 217 221 224 226 225 223 225 228 234 236 242 247 251
185 198 200 203 204 200 163 115 90 45 41 60 36 119 157 146 174 190 198 193 195 193 188 195 197 200 197 199 208 213 218 223 228 231 232 228 226 228 231 233 238 245 248
187 203 205 212 203 217 204 177 149 41 45 19 20 66 191 212 148 155 190 215 177 205 215 207 205 208 207 205 212 218 223 228 232 237 238 233 230 231 231 231 233 237 241
198 206 206 212 212 211 191 190 115 354 322 332 360 194 22 113 65 144 166 213 209 219 234 228 226 214 203 216 223 225 230 237 233 235 235 231 231 229 227 227 230 235 242
191 201 209 219 226 238 227 170 152 261 257 311 314 24 82 20 70 146 201 234 259 274 232 216 223 227 203 205 221 228 233 239 236 230 228 228 227 225 227 234 239 240 243
216 199 209 212 197 218 228 221 231 286 202 229 273 285 49 359 24 356 290 298 277 266 231 235 228 222 215 196 190 205 230 234 238 239 235 237 237 235 237 243 249 251 251
211 199 196 201 194 222 228 229 235 211 187 153 314 276 286 325 321 331 46 326 320 269 207 225 230 236 209 213 230 216 243 249 244 246 245 244 243 243 246 246 249 249 249
211 208 198 207 212 227 233 219 218 216 203 198 207 197 282 260 279 296 252 343 302 222 227 278 245 236 223 230 223 225 251 255 263 247 248 250 251 246 248 251 261 265 261
217 226 223 229 234 235 234 223 232 244 255 251 245 232 250 260 259 282 242 322 294 298 259 308 302 246 239 240 237 249 256 256 258 245 251 251 253 253 253 257 265 273 273
213 221 228 229 234 249 240 232 225 241 264 256 256 288 271 275 268 254 271 265 299 310 33 254 293 257 256 237 243 263 255 259 257 254 255 258 259 258 259 262 266 267 265
223 228 230 223 227 232 241 244 253 266 264 254 247 264 264 276 277 269 261 261 274 284 287 285 272 255 255 247 249 271 272 264 264 259 259 258 257 261 263 264 266 268 269
222 227 228 233 237 241 236 246 253 255 246 253 247 253 254 261 266 266 272 264 263 265 270 279 287 269 264 261 259 271 280 277 266 264 261 262 257 261 266 269 270 271 273
224 226 229 234 233 238 240 252 259 252 247 247 250 254 253 254 265 258 261 264 258 255 264 277 270 276 265 262 268 274 278 278 278 269 267 265 263 267 271 272 274 275 274
227 230 234 241 248 256 258 253 250 251 251 249 252 254 260 257 262 262 262 259 257 260 264 269 269 264 269 263 271 275 279 279 276 278 280 276 273 270 272 277 277 276 273
221 223 230 233 238 241 245 249 251 251 253 255 256 257 257 261 258 258 264 260 262 266 271 270 274 276 267 261 266 279 275 280 275 280 282 283 282 281 274 273 275 274 273
233 241 239 234 235 241 247 252 255 255 254 253 250 250 254 259 259 264 262 263 262 262 266 269 276 278 276 276 276 282 284 284 282 288 289 294 291 288 286 279 278 272 270
242 246 241 240 239 242 250 255 258 256 255 255 252 256 252 253 256 261 260 264 260 267 265 269 271 274 280 279 278 277 278 275 278 287 289 284 283 283 282 280 276 273 270
250 248 242 241 243 251 257 255 256 256 258 257 256 256 257 256 256 258 261 261 260 267 267 269 272 278 282 286 281 280 281 282 279 281 281 281 286 287 289 287 280 271 271
248 254 257 252 252 254 259 259 255 254 255 256 252 253 252 254 255 256 261 265 263 264 266 275 277 276 278 278 279 278 275 281 280 280 283 284 284 287 288 287 283 277 277
252 252 253 255 256 253 251 252 257 259 259 256 253 250 247 248 251 256 260 261 262 262 266 270 274 276 277 276 274 274 277 277 278 283 284 280 285 287 287 287 288 281 272
Wind_Speed_850mb
24 21 21 18 15 11 16 6 14 12 13 12 13 15 14 24 19 12 16 13 16 21 25 26 28 31 36 43 49 44 31 32 32 33 34 35 35 32 31 27 26 26 26
18 16 20 16 10 6 4 6 4 12 9 8 2 4 9 16 19 18 19 13 16 22 26 27 30 34 37 41 42 39 36 34 33 32 32 36 34 32 32 31 29 28 29
17 11 15 12 6 5 9 5 5 12 17 19 6 2 5 13 19 19 20 17 18 20 22 26 29 31 32 32 32 32 32 30 30 28 27 28 30 30 29 27 27 27 28
19 15 12 12 11 4 4 13 6 6 20 15 10 11 5 14 17 24 19 16 18 19 22 23 24 26 28 27 27 26 26 27 27 26 25 26 27 28 28 27 27 27 28
21 18 16 11 7 3 4 6 14 12 9 19 14 10 7 12 16 20 22 17 17 18 18 19 19 21 23 24 23 23 24 26 26 25 26 27 27 27 27 26 26 26 27
24 22 17 15 10 4 5 5 11 10 14 8 10 15 14 10 15 11 24 22 19 19 20 17 17 18 17 17 19 21 21 22 23 24 25 26 27 26 25 25 24 23 25
25 30 20 17 13 9 5 2 5 6 11 4 11 17 17 22 19 8 8 18 16 19 23 22 16 16 18 18 20 21 21 21 21 23 25 26 26 25 23 21 20 20 21
35 29 22 18 18 15 8 6 7 6 6 9 6 3 16 17 28 14 21 18 19 18 23 26 25 21 21 17 16 18 20 20 19 19 21 23 23 23 22 19 16 16 16
24 31 30 18 18 17 12 15 8 4 6 7 6 5 10 11 22 16 23 23 8 21 22 28 29 29 26 23 17 15 14 16 17 17 19 21 21 22 21 19 16 13 12
21 25 34 23 18 13 21 11 7 6 7 8 8 3 4 6 7 9 11 22 17 18 19 27 31 26 24 19 22 18 11 12 14 15 16 16 18 21 20 19 17 14 11
19 25 30 24 17 17 11 7 6 6 11 10 8 3 2 16 3 5 8 13 14 17 23 28 22 28 17 16 18 22 16 11 14 16 16 16 16 15 15 15 16 16 14
21 25 30 21 14 16 17 16 10 8 4 1 11 9 1 15 14 7 9 12 12 8 25 31 27 23 24 12 14 17 16 14 13 16 17 16 15 15 15 15 17 19 19
32 23 28 25 17 8 14 17 15 5 6 6 1 12 9 9 3 8 4 9 8 6 10 17 26 29 33 21 9 13 18 13 16 17 18 17 16 15 15 15 17 19 23
27 24 22 22 19 16 13 11 7 12 11 12 3 2 7 6 12 11 10 16 12 12 18 17 17 28 27 27 21 18 20 19 17 19 20 20 16 17 17 16 16 18 20
36 24 26 26 30 27 18 18 16 15 14 15 12 11 9 9 11 9 12 14 14 12 6 6 23 19 31 29 23 20 21 19 19 19 18 21 20 20 21 20 19 19 19
31 29 32 31 28 35 32 25 17 16 19 16 15 12 14 13 13 19 15 17 11 8 4 10 21 21 12 25 27 21 21 20 20 21 22 23 23 23 25 25 25 25 24
37 36 30 29 28 19 30 28 20 22 23 27 23 19 27 23 19 21 27 22 22 22 21 12 14 18 16 21 22 18 21 23 21 22 25 29 30 28 28 29 29 29 28
46 38 41 37 38 34 29 31 22 20 24 22 23 26 26 26 24 25 22 23 26 22 23 17 18 21 23 19 22 25 23 24 25 27 30 30 32 33 33 32 33 33 32
54 51 42 44 42 35 31 31 33 32 29 28 28 27 26 26 26 24 28 28 26 27 24 24 23 22 25 29 33 31 33 33 30 31 34 35 35 35 37 38 38 38 38
55 50 52 51 47 44 42 37 34 37 38 33 31 30 28 30 29 26 29 30 33 32 31 32 34 30 26 28 34 36 39 39 39 36 38 43 44 46 46 44 45 44 43
48 45 44 45 40 40 41 39 38 37 35 36 36 33 32 30 33 31 31 30 29 30 32 34 35 36 32 34 39 37 38 40 45 50 49 49 49 51 52 51 49 47 47
49 50 53 48 42 43 39 39 40 39 39 38 38 33 31 31 35 32 34 35 31 31 33 36 38 40 38 35 35 39 41 44 50 45 45 47 46 47 43 45 47 48 48
54 54 54 54 49 41 38 38 40 40 42 43 46 45 39 37 35 33 34 37 40 41 45 42 44 43 43 41 41 44 47 52 57 54 55 60 59 61 54 51 47 49 51
46 48 48 51 49 46 43 41 44 49 52 53 53 50 45 46 43 37 33 36 41 44 36 36 42 44 43 41 40 39 41 47 53 56 56 65 64 67 61 60 54 53 55
55 55 51 48 51 51 50 48 44 42 44 45 50 55 55 51 47 45 46 47 46 42 40 41 45 46 45 46 46 49 52 50 58 62 64 66 69 68 70 69 66 66 65
57 52 51 50 46 42 43 43 43 41 42 44 46 50 52 52 50 51 53 51 48 44 47 46 47 48 49 49 49 52 54 56 58 66 61 57 67 68 73 79 74 69 74
Wind_Direction_850mb
147 135 117 113 107 94 73 84 14 340 324 352 350 121 127 144 124 137 141 156 184 197 201 201 197 187 183 186 185 190 206 207 205 210 216 220 222 221 218 228 238 237 236
167 146 126 117 119 133 148 143 302 273 336 23 10 32 160 115 113 123 131 141 182 195 200 199 194 190 187 190 197 209 219 219 219 219 223 222 222 225 228 238 241 241 239
145 156 148 127 162 195 231 260 299 51 66 23 98 138 159 128 113 107 134 150 163 181 185 189 189 187 187 191 197 201 204 207 211 215 217 217 220 225 230 236 239 242 243
154 150 139 144 155 178 239 325 341 34 10 353 92 114 256 159 119 104 145 166 163 163 171 178 178 177 179 183 186 190 193 198 204 208 215 220 222 227 231 237 241 244 247
173 162 174 178 172 161 284 306 37 58 10 9 128 105 111 148 141 135 139 167 169 171 169 166 175 179 180 183 189 195 201 205 209 213 221 227 230 232 236 240 243 245 247
167 187 174 209 187 214 75 122 36 23 356 26 59 110 139 197 168 190 155 161 171 174 179 181 182 191 196 197 202 212 215 221 223 225 226 229 232 233 236 238 241 245 249
186 191 184 189 206 208 245 176 355 32 22 16 17 124 136 166 178 189 240 186 185 176 182 185 188 197 199 200 207 216 217 221 224 226 225 223 225 228 234 236 242 247 251
185 198 200 203 204 200 163 115 90 45 41 60 36 119 157 146 174 190 198 193 195 193 188 195 197 200 197 199 208 213 218 223 228 231 232 228 226 228 231 233 238 245 248
187 203 205 212 203 217 204 177 149 41 45 19 20 66 191 212 148 155 190 215 177 205 215 207 205 208 207 205 212 218 223 228 232 237 238 233 230 231 231 231 233 237 241
198 206 206 212 212 211 191 190 115 354 322 332 360 194 22 113 65 144 166 213 209 219 234 228 226 214 203 216 223 225 230 237 233 235 235 231 231 229 227 227 230 235 242
191 201 209 219 226 238 227 170 152 261 257 311 314 24 82 20 70 146 201 234 259 274 232 216 223 227 203 205 221 228 233 239 236 230 228 228 227 225 227 234 239 240 243
216 199 209 212 197 218 228 221 231 286 202 229 273 285 49 359 24 356 290 298 277 266 231 235 228 222 215 196 190 205 230 234 238 239 235 237 237 235 237 243 249 251 251
211 199 196 201 194 222 228 229 235 211 187 153 314 276 286 325 321 331 46 326 320 269 207 225 230 236 209 213 230 216 243 249 244 246 245 244 243 243 246 246 249 249 249
211 208 198 207 212 227 233 219 218 216 203 198 207 197 282 260 279 296 252 343 302 222 227 278 245 236 223 230 223 225 251 255 263 247 248 250 251 246 248 251 261 265 261
217 226 223 229 234 235 234 223 232 244 255 251 245 232 250 260 259 282 242 322 294 298 259 308 302 246 239 240 237 249 256 256 258 245 251 251 253 253 253 257 265 273 273
213 221 228 229 234 249 240 232 225 241 264 256 256 288 271 275 268 254 271 265 299 310 33 254 293 257 256 237 243 263 255 259 257 254 255 258 259 258 259 262 266 267 265
223 228 230 223 227 232 241 244 253 266 264 254 247 264 264 276 277 269 261 261 274 284 287 285 272 255 255 247 249 271 272 264 264 259 259 258 257 261 263 264 266 268 269
222 227 228 233 237 241 236 246 253 255 246 253 247 253 254 261 266 266 272 264 263 265 270 279 287 269 264 261 259 271 280 277 266 264 261 262 257 261 266 269 270 271 273
224 226 229 234 233 238 240 252 259 252 247 247 250 254 253 254 265 258 261 264 258 255 264 277 270 276 265 262 268 274 278 278 278 269 267 265 263 267 271 272 274 275 274
227 230 234 241 248 256 258 253 250 251 251 249 252 254 260 257 262 262 262 259 257 260 264 269 269 264 269 263 271 275 279 279 276 278 280 276 273 270 272 277 277 276 273
221 223 230 233 238 241 245 249 251 251 253 255 256 257 257 261 258 258 264 260 262 266 271 270 274 276 267 261 266 279 275 280 275 280 282 283 282 281 274 273 275 274 273
233 241 239 234 235 241 247 252 255 255 254 253 250 250 254 259 259 264 262 263 262 262 266 269 276 278 276 276 276 282 284 284 282 288 289 294 291 288 286 279 278 272 270
242 246 241 240 239 242 250 255 258 256 255 255 252 256 252 253 256 261 260 264 260 267 265 269 271 274 280 279 278 277 278 275 278 287 289 284 283 283 282 280 276 273 270
250 248 242 241 243 251 257 255 256 256 258 257 256 256 257 256 256 258 261 261 260 267 267 269 272 278 282 286 281 280 281 282 279 281 281 281 286 287 289 287 280 271 271
248 254 257 252 252 254 259 259 255 254 255 256 252 253 252 254 255 256 261 265 263 264 266 275 277 276 278 278 279 278 275 281 280 280 283 284 284 287 288 287 283 277 277
252 252 253 255 256 253 251 252 257 259 259 256 253 250 247 248 251 256 260 261 262 262 266 270 274 276 277 276 274 274 277 277 278 283 284 280 285 287 287 287 288 281 272